Newark Heath, OH

4:53 AM EDT on July 26, 2017 (GMT -0400)
Newark Heath

Weather History for KVTA - December, 2012

Change the Weather History Date:

Saturday, December 29, 2012

  Actual Average Record
Temperature  
Mean Temperature 30 °F -  
Max Temperature 32 °F 36 °F 65 °F (1984)
Min Temperature 28 °F 22 °F -2 °F (1961)
Degree Days  
Heating Degree Days 35    
Moisture  
Dew Point 26 °F    
Average Humidity 86    
Maximum Humidity 93    
Minimum Humidity 78    
Precipitation  
Precipitation 0.24 in - - ()
Sea Level Pressure  
Sea Level Pressure 29.81 in    
Wind  
Wind Speed 5 mph (NNW)    
Max Wind Speed 16 mph    
Max Gust Speed 25 mph    
Visibility 3 miles    
Events Snow    
Averages and records for this station are not official NWS values.
T = Trace of Precipitation, MM = Missing Value Source: NWS Daily Summary

Daily Weather History Graph

Daily Weather History Graph

Search for Another Location

Airport or City:

Trip Planner

Search our weather history database for the weather conditions in past years. The results will help you decide how hot, cold, wet, or windy it might be!

Date:

Astronomy

Dec. 29, 2012 Rise Set
Actual Time 7:51 AM EST 5:13 PM EST
Civil Twilight 7:20 AM EST 5:43 PM EST
Nautical Twilight 6:46 AM EST 6:17 PM EST
Astronomical Twilight 6:13 AM EST 6:50 PM EST
Moon 6:45 PM EST (12/29) 8:24 AM EST (12/29)
Length of Visible Light 10h 22m
Length of Day
9h 21m
Full, 98% of the Moon is Illuminated
Dec 29
Full
Jan 4
Last Quarter
Jan 11
New
Jan 18
First Quarter
Jan 26
Full

Hourly Weather History & Observations

Time (EST) Temp. Windchill Dew Point Humidity Pressure Visibility Wind Dir Wind Speed Gust Speed Precip Events Conditions
12:54 AM 28.9 °F - 25.0 °F 85% 29.87 in 9.0 mi Calm Calm - N/A   Overcast
1:32 AM 28.4 °F 24.6 °F 24.8 °F 86% 29.82 in 1.8 mi NNE 3.5 mph - 0.00 in Snow Light Snow
1:40 AM 28.4 °F 23.3 °F 24.8 °F 86% 29.81 in 1.5 mi NE 4.6 mph - 0.00 in Snow Light Snow
1:54 AM 28.9 °F 25.2 °F 25.0 °F 85% 29.83 in 1.0 mi NE 3.5 mph - 0.01 in Snow Light Snow
2:03 AM 28.4 °F 23.3 °F 24.8 °F 86% 29.80 in 1.0 mi NE 4.6 mph - 0.01 in Snow Light Snow
2:34 AM 28.4 °F 22.2 °F 26.6 °F 93% 29.77 in 1.0 mi NNE 5.8 mph - 0.02 in Snow Light Snow
2:54 AM 28.9 °F 25.2 °F 26.1 °F 89% 29.79 in 2.0 mi NE 3.5 mph - 0.03 in Snow Light Snow
3:04 AM 28.4 °F 23.3 °F 26.6 °F 93% 29.76 in 1.5 mi North 4.6 mph - 0.00 in Snow Light Snow
3:17 AM 28.4 °F - 26.6 °F 93% 29.76 in 1.0 mi Calm Calm - 0.01 in Snow Light Snow
3:41 AM 28.4 °F 24.6 °F 26.6 °F 93% 29.75 in 0.8 mi NNE 3.5 mph - 0.03 in Snow Light Snow
3:54 AM 28.9 °F 25.2 °F 26.1 °F 89% 29.77 in 0.8 mi NNE 3.5 mph - 0.04 in Snow Light Snow
4:17 AM 28.4 °F 24.6 °F 26.6 °F 93% 29.72 in 1.0 mi NE 3.5 mph - 0.02 in Snow Light Snow
4:43 AM 28.4 °F - 26.6 °F 93% 29.71 in 1.2 mi Calm Calm - 0.03 in Snow Light Snow
4:54 AM 28.9 °F 25.2 °F 26.1 °F 89% 29.73 in 2.0 mi NNE 3.5 mph - 0.04 in Snow Light Snow
5:08 AM 28.4 °F - 26.6 °F 93% 29.69 in 2.5 mi Calm Calm - 0.00 in Snow Light Snow
5:30 AM 28.4 °F 24.6 °F 26.6 °F 93% 29.69 in 1.5 mi Variable 3.5 mph - 0.00 in Snow Light Snow
5:54 AM 28.9 °F 23.9 °F 26.1 °F 89% 29.72 in 1.0 mi North 4.6 mph - 0.02 in Snow Light Snow
6:15 AM 28.4 °F 23.3 °F 26.6 °F 93% 29.68 in 0.8 mi North 4.6 mph - 0.01 in Snow Light Snow
6:26 AM 28.4 °F 23.3 °F 26.6 °F 93% 29.69 in 1.2 mi North 4.6 mph - 0.02 in Snow Light Snow
6:32 AM 28.4 °F 23.3 °F 24.8 °F 86% 29.69 in 2.0 mi North 4.6 mph - 0.02 in Snow Light Snow
6:41 AM 28.4 °F 24.6 °F 26.6 °F 93% 29.69 in 1.2 mi North 3.5 mph - 0.02 in Snow Light Snow
6:54 AM 28.0 °F 21.7 °F 25.0 °F 88% 29.72 in 0.8 mi North 5.8 mph - 0.03 in Snow Light Snow
7:03 AM 28.4 °F 22.2 °F 24.8 °F 86% 29.70 in 1.2 mi North 5.8 mph - 0.01 in Snow Light Snow
7:37 AM 28.4 °F 23.3 °F 24.8 °F 86% 29.70 in 0.8 mi NNW 4.6 mph - 0.03 in Snow Light Snow
7:51 AM 28.4 °F 24.6 °F 26.6 °F 93% 29.71 in 0.8 mi NNW 3.5 mph - 0.04 in Snow Light Snow
7:54 AM 28.0 °F 22.8 °F 26.1 °F 92% 29.74 in 0.8 mi NNW 4.6 mph - 0.05 in Snow Light Snow
8:04 AM 28.4 °F 22.2 °F 24.8 °F 86% 29.71 in 1.0 mi NNW 5.8 mph - 0.00 in Snow Light Snow
8:11 AM 28.4 °F 22.2 °F 24.8 °F 86% 29.71 in 0.8 mi NNW 5.8 mph - 0.00 in Snow Light Snow
8:24 AM 28.4 °F 22.2 °F 24.8 °F 86% 29.71 in 1.0 mi NNW 5.8 mph - 0.00 in Snow Light Snow
8:54 AM 28.0 °F 21.7 °F 25.0 °F 88% 29.75 in 1.2 mi NNW 5.8 mph - 0.01 in Snow Light Snow
9:23 AM 28.4 °F 23.3 °F 24.8 °F 86% 29.72 in 0.8 mi NNW 4.6 mph - 0.01 in Snow Light Snow
9:31 AM 28.4 °F 21.2 °F 24.8 °F 86% 29.72 in 1.2 mi NW 6.9 mph - 0.01 in Snow Light Snow
9:54 AM 28.0 °F 20.0 °F 24.1 °F 85% 29.77 in 1.0 mi NW 8.1 mph - 0.01 in Snow Light Snow
10:32 AM 30.2 °F 24.3 °F 24.8 °F 80% 29.76 in 2.5 mi NW 5.8 mph - 0.00 in Snow Light Snow
10:41 AM 30.2 °F 24.3 °F 24.8 °F 80% 29.75 in 4.0 mi NW 5.8 mph - 0.00 in   Haze
10:54 AM 30.0 °F 25.2 °F 25.0 °F 82% 29.78 in 6.0 mi NNW 4.6 mph - 0.00 in   Haze
11:54 AM 32.0 °F 26.4 °F 26.1 °F 79% 29.79 in 8.0 mi WNW 5.8 mph - N/A   Overcast
12:27 PM 30.2 °F 20.2 °F 26.6 °F 86% 29.77 in 7.0 mi West 12.7 mph - N/A   Overcast
12:54 PM 30.9 °F 23.5 °F 26.1 °F 82% 29.80 in 7.0 mi WNW 8.1 mph - N/A   Overcast
1:54 PM 32.0 °F 22.5 °F 26.1 °F 79% 29.81 in 6.0 mi WNW 12.7 mph - N/A   Haze
2:54 PM 32.0 °F 22.1 °F 26.1 °F 79% 29.83 in 5.0 mi WNW 13.8 mph - N/A   Haze
3:54 PM 30.9 °F 21.2 °F 26.1 °F 82% 29.88 in 4.0 mi WNW 12.7 mph - N/A   Haze
4:32 PM 30.2 °F 20.2 °F 24.8 °F 80% 29.87 in 4.0 mi WNW 12.7 mph - N/A   Haze
4:54 PM 30.9 °F 21.2 °F 25.0 °F 79% 29.90 in 4.0 mi WNW 12.7 mph - 0.00 in   Haze
5:54 PM 30.0 °F 23.2 °F 26.1 °F 85% 29.94 in 4.0 mi West 6.9 mph - 0.00 in Snow Light Snow
6:09 PM 30.2 °F 21.9 °F 26.6 °F 86% 29.91 in 4.0 mi West 9.2 mph - 0.00 in Snow Light Snow
6:54 PM 30.0 °F 22.4 °F 25.0 °F 82% 29.96 in 4.0 mi WNW 8.1 mph - 0.00 in Snow Light Snow
7:54 PM 30.0 °F 23.2 °F 26.1 °F 85% 29.99 in 3.0 mi West 6.9 mph - 0.00 in Snow Light Snow
8:35 PM 30.2 °F 24.3 °F 26.6 °F 86% 29.97 in 2.5 mi West 5.8 mph - 0.00 in Snow Light Snow
8:51 PM 30.2 °F 22.6 °F 24.8 °F 80% 29.97 in 3.0 mi West 8.1 mph - 0.00 in Snow Light Snow
8:54 PM 30.0 °F 22.4 °F 25.0 °F 82% 30.00 in 3.0 mi West 8.1 mph - 0.00 in Snow Light Snow
9:01 PM 30.2 °F 22.6 °F 24.8 °F 80% 29.97 in 2.0 mi West 8.1 mph - 0.00 in Snow Light Snow
9:54 PM 30.0 °F 21.7 °F 26.1 °F 85% 30.03 in 1.8 mi West 9.2 mph - 0.00 in Snow Light Snow
10:09 PM 30.2 °F 22.6 °F 26.6 °F 86% 30.00 in 2.0 mi WNW 8.1 mph - 0.00 in Snow Light Snow
10:51 PM 30.2 °F 18.9 °F 24.8 °F 80% 30.02 in 3.0 mi West 16.1 mph 20.7 mph 0.00 in Snow Light Snow
10:54 PM 30.0 °F 19.5 °F 25.0 °F 82% 30.05 in 4.0 mi West 13.8 mph - 0.00 in Snow Light Snow
11:54 PM 28.9 °F 17.3 °F 23.0 °F 78% 30.09 in 5.0 mi WNW 16.1 mph 25.3 mph 0.00 in   Haze